| time (UTC) | temp F | wind direction | speed knots | gust knots | rain 1hr in | rain 24hr in | rain mn in | humidity % | barometer mb |
| 20260505024806 | 61 | 318 | 0.9 | 1.7 | 0.00 | 0.09 | 0.09 | 68 | 1023.5 |
| 20260505023303 | 61 | 284 | 1.7 | 1.7 | 0.00 | 0.09 | 0.09 | 68 | 1023.7 |
| 20260505021800 | 61 | 278 | 0.0 | 0.0 | 0.00 | 0.09 | 0.09 | 71 | 1023.7 |
| 20260505020300 | 62 | 276 | 0.0 | 0.0 | 0.00 | 0.09 | 0.09 | 68 | 1023.9 |
| 20260505014758 | 60 | 287 | 0.0 | 0.0 | 0.00 | 0.09 | 0.09 | 75 | 1023.9 |
| 20260505013254 | 59 | 281 | 0.0 | 0.0 | 0.00 | 0.09 | 0.09 | 76 | 1024.2 |
| 20260505011751 | 59 | 276 | 0.0 | 0.0 | 0.00 | 0.09 | 0.09 | 79 | 1023.8 |
| 20260505010246 | 57 | 288 | 0.0 | 0.0 | 0.00 | 0.09 | 0.09 | 85 | 1023.6 |
| 20260505004743 | 57 | 281 | 0.0 | 0.0 | 0.00 | 0.09 | 0.09 | 92 | 1023.5 |
| 20260505003240 | 57 | 282 | 0.0 | 0.0 | 0.00 | 0.09 | 0.09 | 96 | 1023.5 |
| 20260505001737 | 56 | 279 | 0.0 | 0.9 | 0.00 | 0.09 | 0.09 | 98 | 1023.4 |
| 20260505000235 | 57 | 266 | 0.0 | 0.0 | 0.00 | 0.09 | 0.09 | 99 | 1023.2 |
| 20260504234730 | 56 | 267 | 0.0 | 0.0 | 0.00 | 0.09 | 0.09 | 99 | 1023.2 |
| 20260504233225 | 56 | 278 | 0.0 | 0.0 | 0.00 | 0.09 | 0.09 | 99 | 1023.2 |
| 20260504231722 | 56 | 293 | 0.0 | 0.0 | 0.00 | 0.09 | 0.09 | 99 | 1023.0 |
| 20260504230219 | 56 | 277 | 0.0 | 0.0 | 0.00 | 0.09 | 0.09 | 99 | 1023.0 |
| 20260504224716 | 55 | 278 | 0.0 | 0.0 | 0.00 | 0.09 | 0.09 | 99 | 1022.8 |
| 20260504223211 | 55 | 266 | 0.0 | 0.0 | 0.00 | 0.09 | 0.09 | 99 | 1022.8 |
| 20260504221709 | 55 | 277 | 0.0 | 0.0 | 0.00 | 0.09 | 0.09 | 99 | 1022.6 |
| 20260504220206 | 54 | 277 | 0.0 | 0.0 | 0.00 | 0.09 | 0.09 | 99 | 1022.4 |
| 20260504214706 | 54 | 276 | 0.0 | 0.0 | 0.00 | 0.09 | 0.09 | 99 | 1022.3 |
| 20260504213202 | 54 | 276 | 0.0 | 0.0 | 0.00 | 0.09 | 0.09 | 99 | 1022.2 |
| 20260504211659 | 53 | 303 | 0.0 | 0.0 | 0.07 | 0.09 | 0.09 | 99 | 1022.0 |
| 20260504210155 | 53 | 264 | 0.0 | 0.0 | 0.00 | 0.07 | 0.07 | 99 | 1021.6 |
| 20260504204654 | 53 | 259 | 0.0 | 0.0 | 0.00 | 0.07 | 0.07 | 99 | 1021.6 |
| 20260504203154 | 53 | 270 | 0.0 | 0.0 | 0.00 | 0.07 | 0.07 | 99 | 1021.6 |
| 20260504201654 | 53 | 270 | 0.0 | 0.0 | 0.00 | 0.07 | 0.07 | 99 | 1021.4 |
| 20260504200151 | 54 | 275 | 0.0 | 0.0 | 0.00 | 0.07 | 0.07 | 99 | 1021.2 |
| 20260504194646 | 53 | 268 | 0.0 | 0.0 | 0.00 | 0.07 | 0.07 | 99 | 1021.3 |
| 20260504193142 | 53 | 268 | 0.0 | 0.0 | 0.00 | 0.07 | 0.07 | 99 | 1021.1 |
| 20260504191642 | 53 | 250 | 0.0 | 0.0 | 0.00 | 0.06 | 0.06 | 99 | 1020.9 |
| 20260504190137 | 53 | 264 | 0.0 | 0.0 | 0.00 | 0.06 | 0.06 | 98 | 1020.8 |
| 20260504184638 | 53 | 264 | 0.0 | 0.0 | 0.00 | 0.06 | 0.06 | 98 | 1020.8 |
| 20260504183133 | 54 | 287 | 0.0 | 0.0 | 0.00 | 0.06 | 0.06 | 98 | 1020.7 |
| 20260504181631 | 53 | 291 | 0.0 | 0.0 | 0.07 | 0.05 | 0.05 | 98 | 1020.5 |
| 20260504180126 | 53 | 274 | 0.0 | 0.0 | 0.00 | 0.04 | 0.04 | 98 | 1020.5 |
| 20260504174624 | 54 | 266 | 0.0 | 0.0 | 0.00 | 0.04 | 0.04 | 98 | 1020.6 |
| 20260504173120 | 53 | 269 | 0.0 | 0.0 | 0.07 | 0.04 | 0.04 | 98 | 1020.6 |
| 20260504171615 | 53 | 285 | 0.0 | 0.0 | 0.00 | 0.03 | 0.03 | 98 | 1020.7 |
| 20260504170112 | 53 | 278 | 0.0 | 0.0 | 0.00 | 0.03 | 0.03 | 98 | 1020.9 |
| 20260504081435 | 60 | 292 | 0.9 | 0.9 | 0.00 | 0.39 | 0.39 | 74 | 1017.0 |
| 20260504045855 | 67 | 308 | 0.9 | 1.7 | 0.00 | 0.39 | 0.39 | 62 | 1015.1 |
| 20260504044350 | 66 | 292 | 0.9 | 0.9 | 0.00 | 0.39 | 0.39 | 63 | 1014.9 |
| 20260504042847 | 66 | 271 | 3.5 | 5.2 | 0.00 | 0.39 | 0.39 | 62 | 1014.7 |
| 20260504041342 | 64 | 334 | 0.0 | 0.9 | 0.00 | 0.39 | 0.39 | 66 | 1014.7 |
| 20260504035837 | 65 | 351 | 1.7 | 2.6 | 0.00 | 0.39 | 0.39 | 65 | 1014.8 |
| 20260504034336 | 65 | 301 | 2.6 | 3.5 | 0.00 | 0.39 | 0.39 | 66 | 1014.6 |
| 20260504032832 | 64 | 291 | 0.0 | 0.9 | 0.00 | 0.39 | 0.39 | 68 | 1014.7 |
| 20260504031330 | 64 | 281 | 2.6 | 2.6 | 0.00 | 0.39 | 0.39 | 69 | 1014.8 |
| 20260504025825 | 64 | 277 | 0.0 | 0.9 | 0.00 | 0.39 | 0.39 | 71 | 1014.9 |